Stations météo

réclame
Mon MeteoGroup
Logrono/Agoncillo, Espagne (8084): Température de l'air & dewpoint: 11.01.2020 23:00:00 - 17.01.2020 23:00:00 (CET)Logrono/Agoncillo, Espagne (8084): Vitesse du vent: 11.01.2020 23:00:00 - 17.01.2020 23:00:00 (CET)Logrono/Agoncillo, Espagne (8084): Direction du vent: 11.01.2020 23:00:00 - 17.01.2020 23:00:00 (CET)Logrono/Agoncillo, Espagne (8084): reduced air pressure: 11.01.2020 23:00:00 - 17.01.2020 23:00:00 (CET)Logrono/Agoncillo, Espagne (8084): visibility: 11.01.2020 23:00:00 - 17.01.2020 23:00:00 (CET)
Date & Time tt [°C] td [°C] ff [km/h] ff [knt] dd ppp [hPa] vv [km]
17.01.2020 23:00:00 2,8 1,9 0 0 N 1034,3 -
17.01.2020 22:00:00 3,6 2,7 0 0 N 1034,2 15
17.01.2020 21:00:00 4,9 3,1 0 0 N 1034,0 -
17.01.2020 20:00:00 5,6 3,5 0 0 N 1033,6 -
17.01.2020 19:00:00 6,3 2,9 0 0 N 1033,0 20
17.01.2020 18:00:00 8,6 3,6 4 2 S 1031,6 -
17.01.2020 17:00:00 9,6 4,0 4 2 N 1030,9 -
17.01.2020 16:00:00 12,5 4,6 4 2 NW 1029,4 30
17.01.2020 15:00:00 13,3 4,8 11 6 NNW 1028,7 -
17.01.2020 14:00:00 12,4 4,0 15 8 WNW 1028,8 -
17.01.2020 13:00:00 12,7 4,4 15 8 W 1028,7 20
17.01.2020 12:00:00 12,1 5,2 18 10 W 1028,6 -
17.01.2020 11:00:00 9,8 6,9 13 7 WSW 1028,4 -
17.01.2020 10:00:00 5,7 5,2 8 4 SW 1028,7 8
17.01.2020 09:00:00 4,2 3,9 4 2 SW 1028,3 -
17.01.2020 08:00:00 3,2 2,9 4 2 W 1027,8 -
17.01.2020 07:00:00 1,7 1,4 0 0 N 1026,7 4,0
17.01.2020 06:00:00 3,2 2,9 4 2 WSW 1026,1 -
17.01.2020 05:00:00 3,7 3,1 2 1 W 1025,8 -
17.01.2020 04:00:00 6,0 4,6 0 0 N 1025,5 -
17.01.2020 03:00:00 4,6 4,2 5 3 E 1025,5 -
17.01.2020 02:00:00 6,1 5,2 5 3 WSW 1025,2 -
17.01.2020 01:00:00 7,3 5,3 4 2 ESE 1025,1 -
17.01.2020 00:00:00 7,5 5,6 4 2 E 1024,8 -
16.01.2020 23:00:00 5,9 5,2 4 2 WSW 1024,7 -
16.01.2020 22:00:00 5,1 4,7 8 4 ENE 1024,5 5
16.01.2020 21:00:00 5,3 4,9 4 2 S 1024,3 -
16.01.2020 20:00:00 4,5 3,9 0 0 N 1024,2 -
16.01.2020 19:00:00 5,4 4,7 0 0 N 1023,4 8
16.01.2020 18:00:00 7,2 5,3 0 0 N 1023,0 -
16.01.2020 17:00:00 9,2 6,3 4 2 W 1022,7 -
16.01.2020 16:00:00 10,3 6,4 4 2 WNW 1023,0 15
16.01.2020 15:00:00 11,5 6,6 2 1 E 1023,2 -
16.01.2020 14:00:00 9,8 6,2 4 2 E 1024,8 -
16.01.2020 13:00:00 7,7 5,3 9 5 ESE 1026,6 9
16.01.2020 12:00:00 5,2 4,2 11 6 E 1027,8 -
16.01.2020 11:00:00 3,3 3,2 15 8 E 1028,2 -
16.01.2020 10:00:00 2,1 2,1 11 6 ESE 1028,6 2,0
16.01.2020 09:00:00 - - - - - - -
16.01.2020 08:00:00 - - - - - - -
16.01.2020 07:00:00 - - - - - - 0,8
16.01.2020 06:00:00 - - - - - - -
16.01.2020 05:00:00 - - - - - - -
16.01.2020 04:00:00 -1,6 -1,6 0 0 N 1028,9 -
16.01.2020 03:00:00 -1,3 -1,3 0 0 N 1028,4 -
16.01.2020 02:00:00 -0,6 -0,6 4 2 W 1028,7 -
16.01.2020 01:00:00 -0,3 -0,3 0 0 N 1028,5 -
16.01.2020 00:00:00 0,0 0,0 0 0 N 1028,5 -
15.01.2020 23:00:00 0,8 0,7 0 0 N 1028,4 -
15.01.2020 22:00:00 1,9 1,8 8 4 WSW 1027,8 3,5
15.01.2020 21:00:00 1,6 1,1 5 3 E 1028,1 -
15.01.2020 20:00:00 4,3 3,3 8 4 WSW 1027,2 -
15.01.2020 19:00:00 6,4 4,1 4 2 SSW 1026,1 12
15.01.2020 18:00:00 8,1 4,7 4 2 SW 1025,2 -
15.01.2020 17:00:00 8,2 4,4 4 2 SSW 1024,4 -
15.01.2020 16:00:00 8,5 4,5 8 4 SSE 1023,9 15
15.01.2020 15:00:00 7,4 3,9 4 2 E 1023,7 -
15.01.2020 14:00:00 6,7 3,6 8 4 ESE 1024,1 -
15.01.2020 13:00:00 5,5 3,1 9 5 ESE 1024,6 12
15.01.2020 12:00:00 4,5 2,8 13 7 ESE 1025,2 -
15.01.2020 11:00:00 2,4 2,0 9 5 E 1025,4 -
15.01.2020 10:00:00 1,0 1,0 8 4 E 1024,8 3,0
15.01.2020 09:00:00 -0,8 -0,8 8 4 NE 1024,2 -
15.01.2020 08:00:00 -1,2 -1,2 5 3 ENE 1023,7 -
15.01.2020 07:00:00 -0,7 -0,7 4 2 NNW 1023,1 4,0
15.01.2020 06:00:00 -0,2 -0,2 4 2 W 1022,7 -
15.01.2020 05:00:00 0,1 0,1 5 3 NNW 1022,5 -
15.01.2020 04:00:00 0,3 0,3 0 0 N 1022,9 -
15.01.2020 03:00:00 1,0 0,9 8 4 ESE 1022,8 -
15.01.2020 02:00:00 0,6 0,6 11 6 SE 1022,7 -
15.01.2020 01:00:00 0,4 0,4 9 5 E 1023,0 -
15.01.2020 00:00:00 0,2 0,2 11 6 E 1023,4 -
14.01.2020 23:00:00 -0,1 -0,1 9 5 E 1023,3 -
14.01.2020 22:00:00 0,0 0,0 16 9 E 1023,1 0,2
14.01.2020 21:00:00 0,2 0,2 11 6 E 1023,3 -
14.01.2020 20:00:00 0,3 0,3 4 2 E 1023,2 -
14.01.2020 19:00:00 0,4 0,4 8 4 ESE 1023,2 0,3
14.01.2020 18:00:00 0,4 0,4 9 5 ESE 1022,9 -
14.01.2020 17:00:00 0,7 0,7 8 4 E 1022,6 -
14.01.2020 16:00:00 0,6 0,6 4 2 E 1022,6 1,5
14.01.2020 15:00:00 0,2 0,2 5 3 NNE 1023,0 -
14.01.2020 14:00:00 0,1 0,1 5 3 E 1023,8 -
14.01.2020 13:00:00 -0,3 -0,3 8 4 ESE 1024,6 0,7
14.01.2020 12:00:00 -0,6 -0,6 9 5 ESE 1024,9 -
14.01.2020 11:00:00 -0,9 -0,9 8 4 ENE 1025,1 -
14.01.2020 10:00:00 -1,1 -1,1 9 5 E 1024,7 0,2
14.01.2020 09:00:00 -1,2 -1,2 9 5 ENE 1024,5 -
14.01.2020 08:00:00 -0,9 -0,9 5 3 NE 1024,2 -
14.01.2020 07:00:00 -1,0 -1,0 8 4 ENE 1023,6 0,1
14.01.2020 06:00:00 -0,7 -0,7 0 0 N 1023,5 -
14.01.2020 05:00:00 -0,7 -0,7 4 2 NNE 1023,9 -
14.01.2020 04:00:00 -0,7 -0,7 0 0 N 1024,2 -
14.01.2020 03:00:00 -1,0 -1,0 2 1 NW 1024,1 -
14.01.2020 02:00:00 -1,8 -1,8 8 4 E 1024,1 -
14.01.2020 01:00:00 -1,7 -1,8 5 3 N 1024,7 -
14.01.2020 00:00:00 -1,4 -2,0 0 0 N 1025,1 -
13.01.2020 23:00:00 -0,5 -0,5 5 3 SW 1024,8 -
13.01.2020 22:00:00 0,0 -0,3 4 2 WSW 1024,4 3,0
13.01.2020 21:00:00 0,4 0,1 4 2 W 1024,3 -
13.01.2020 20:00:00 0,3 -0,3 0 0 N 1024,2 -
13.01.2020 19:00:00 2,5 0,2 11 6 SE 1023,9 6
13.01.2020 18:00:00 2,7 1,0 11 6 E 1023,6 -
13.01.2020 17:00:00 5,4 2,2 9 5 SE 1023,6 -
13.01.2020 16:00:00 5,3 2,5 8 4 E 1023,8 18
13.01.2020 15:00:00 6,2 1,9 8 4 E 1023,7 -
13.01.2020 14:00:00 5,5 1,5 0 0 N 1025,1 -
13.01.2020 13:00:00 4,3 1,7 4 2 ENE 1026,4 12
13.01.2020 12:00:00 3,2 1,7 4 2 ENE 1027,4 -
13.01.2020 11:00:00 1,1 0,4 0 0 N 1028,0 -
13.01.2020 10:00:00 -0,5 -0,5 5 3 NE 1028,2 10
13.01.2020 09:00:00 -1,7 -1,7 0 0 N 1028,3 -
13.01.2020 08:00:00 -1,5 -1,5 0 0 N 1028,4 -
13.01.2020 07:00:00 -1,4 -1,4 4 2 W 1028,6 15
13.01.2020 06:00:00 -1,8 -1,8 0 0 N 1028,9 -
13.01.2020 05:00:00 -0,8 -0,8 0 0 N 1029,4 -
13.01.2020 04:00:00 -1,2 -1,2 0 0 N 1030,3 -
13.01.2020 03:00:00 -0,3 -0,3 2 1 W 1030,3 -
13.01.2020 02:00:00 0,0 -0,4 0 0 N 1030,4 -
13.01.2020 01:00:00 0,5 -0,4 0 0 N 1030,9 -
13.01.2020 00:00:00 1,8 1,2 2 1 W 1031,1 -
12.01.2020 23:00:00 2,1 1,4 0 0 N 1031,0 -
12.01.2020 22:00:00 3,0 1,2 0 0 N 1030,8 -
12.01.2020 21:00:00 4,3 2,3 5 3 W 1030,8 -
12.01.2020 20:00:00 5,3 2,0 5 3 W 1030,8 -
12.01.2020 19:00:00 7,5 2,5 5 3 W 1030,3 30
12.01.2020 18:00:00 10,2 1,6 11 6 WSW 1029,4 -
12.01.2020 17:00:00 12,6 1,6 11 6 W 1028,8 -
12.01.2020 16:00:00 12,9 2,0 9 5 W 1028,6 -
12.01.2020 15:00:00 11,8 2,5 13 7 W 1029,2 -
12.01.2020 14:00:00 10,0 2,0 15 8 WSW 1030,4 -
12.01.2020 13:00:00 8,3 2,0 15 8 W 1031,8 -
12.01.2020 12:00:00 6,2 1,1 13 7 W 1033,4 -
12.01.2020 11:00:00 4,6 0,8 21 11 W 1033,9 -
12.01.2020 10:00:00 3,2 0,6 15 8 W 1033,6 -
12.01.2020 09:00:00 2,1 0,3 18 10 W 1032,9 -
12.01.2020 08:00:00 2,1 0,5 16 9 W 1032,8 -
12.01.2020 07:00:00 2,4 0,6 13 7 WSW 1032,9 -
12.01.2020 06:00:00 2,7 0,6 13 7 W 1032,4 -
12.01.2020 05:00:00 2,6 0,7 11 6 W 1032,4 -
12.01.2020 04:00:00 2,8 0,7 11 6 WSW 1032,4 -
12.01.2020 03:00:00 2,9 0,8 8 4 W 1032,3 -
12.01.2020 02:00:00 3,4 0,8 9 5 WSW 1032,0 -
12.01.2020 01:00:00 3,7 0,6 11 6 WSW 1032,1 -
12.01.2020 00:00:00 3,9 0,8 9 5 WSW 1032,1 -
11.01.2020 23:00:00 4,9 1,2 13 7 W 1031,9 -

tt = Température de l'air
td = dewpoint
ff = Vitesse du vent
dd = Direction du vent
ppp = reduced air pressure
vv = visibility

stations d'obs. à proximité